Location: Balmoral
(33.0667°S, 151.5833°E)
Time: 00:48:40
(UTC+00:00)

SeaSat 1 - Pass Details

Date: 18 September 2020
Orbit: 744 x 748 km, 108.0° (Epoch: 21 October)

Event Time Altitude Azimuth Distance (km) Brightness Sun altitude
Rises 18:16:36 0° 43° (NE) 3,183 6.1 -19.7°
Reaches altitude 10° 18:18:57 10° 50° (NE) 2,265 5.4 -19.3°
Maximum altitude 18:23:35 42° 119° (ESE) 1,064 3.7 -18.3°
Drops below altitude 10° 18:28:15 10° 189° (S) 2,288 5.0 -17.3°
Sets 18:30:37 0° 195° (SSW) 3,218 5.7 -16.9°
